FW7343 Weather Reports


Display with metric or nautical units.
time (UTC)temp
F
wind
direction
speed
MPH
gust
MPH
rain 1hr
in
rain 24hr
in
rain mn
in
humidity
%
barometer
mb
20200705103851 67 261 0.0 0.0 0.00 0.00 0.00 92 1029.7
20200705103347 67 261 0.0 0.0 0.00 0.00 0.00 92 1029.6
20200705102843 67 261 0.0 0.0 0.00 0.00 0.00 92 1029.9
20200705102338 67 261 0.0 0.0 0.00 0.00 0.00 92 1029.7
20200705101835 67 260 0.0 0.0 0.00 0.00 0.00 92 1029.6
20200705101333 68 260 0.0 0.0 0.00 0.00 0.00 92 1029.6
20200705100829 67 260 0.0 0.0 0.00 0.00 0.00 92 1029.5
20200705100326 67 261 0.0 0.0 0.00 0.00 0.00 92 1029.5
20200705095826 67 261 0.0 0.0 0.00 0.00 0.00 92 1029.6
20200705095321 67 261 0.0 0.0 0.00 0.00 0.00 92 1029.5
20200705094816 68 261 0.0 0.0 0.00 0.00 0.00 91 1029.5
20200705094311 68 261 0.0 0.0 0.00 0.00 0.00 91 1029.6
20200705093805 68 261 0.0 0.0 0.00 0.00 0.00 91 1029.6
20200705093301 68 230 0.0 0.0 0.00 0.00 0.00 91 1029.6
20200705092756 68 230 0.0 0.0 0.00 0.00 0.00 91 1029.5
20200705092249 68 230 0.0 0.0 0.00 0.00 0.00 91 1029.3
20200705091248 68 265 1.0 1.0 0.00 0.00 0.00 91 1029.2
20200705090745 68 267 0.0 0.0 0.00 0.00 0.00 91 1029.4
20200705090243 68 272 0.0 0.0 0.00 0.00 0.00 91 1029.1
20200705085736 68 252 0.0 0.0 0.00 0.00 0.00 91 1029.3
20200705085235 68 252 0.0 0.0 0.00 0.00 0.00 91 1029.1
20200705084729 68 254 0.0 0.0 0.00 0.00 0.00 91 1029.0
20200705084228 68 273 0.0 0.0 0.00 0.00 0.00 91 1029.1
20200705083727 68 269 0.0 0.0 0.00 0.00 0.00 91 1029.1
20200705083226 68 267 0.0 0.0 0.00 0.00 0.00 91 1029.1
20200705082724 69 267 0.0 0.0 0.00 0.00 0.00 91 1029.0
20200705082223 69 267 0.0 0.0 0.00 0.00 0.00 90 1028.9
20200705081722 69 236 0.0 0.0 0.00 0.00 0.00 90 1028.7
20200705081219 69 236 0.0 0.0 0.00 0.00 0.00 89 1029.0
20200705080714 70 236 0.0 0.0 0.00 0.00 0.00 89 1029.1
20200705080208 70 237 0.0 0.0 0.00 0.00 0.00 88 1029.1
20200705075707 69 273 0.0 0.0 0.00 0.00 0.00 89 1029.1
20200705075204 69 278 0.0 0.0 0.00 0.00 0.00 91 1029.2
20200705074702 69 287 0.0 0.0 0.00 0.00 0.00 91 1028.9
20200705074157 69 285 0.0 0.0 0.00 0.00 0.00 91 1029.0
20200705073654 69 287 0.0 0.0 0.00 0.00 0.00 91 1028.9
20200705073149 69 278 0.0 0.0 0.00 0.00 0.00 90 1029.2
20200705072648 69 278 0.0 0.0 0.00 0.00 0.00 90 1029.2
20200705072143 69 278 0.0 0.0 0.00 0.00 0.00 90 1029.3
20200705071642 69 278 0.0 0.0 0.00 0.00 0.00 89 1029.1
20200705071137 70 278 0.0 0.0 0.00 0.00 0.00 89 1029.4
20200705070635 70 278 0.0 0.0 0.00 0.00 0.00 89 1029.3
20200705070132 70 277 0.0 0.0 0.00 0.00 0.00 89 1029.1
20200705065631 70 276 0.0 0.0 0.00 0.00 0.00 88 1029.3
20200705065125 70 277 0.0 0.0 0.00 0.00 0.00 88 1029.3
20200705064622 70 277 0.0 0.0 0.00 0.00 0.00 88 1029.3
20200705064120 70 277 0.0 0.0 0.00 0.00 0.00 88 1029.6
20200705063618 71 277 0.0 0.0 0.00 0.00 0.00 87 1029.2
20200705063115 71 238 0.0 0.0 0.00 0.00 0.00 87 1029.3
20200705062609 71 239 0.0 0.0 0.00 0.00 0.00 87 1029.1
20200705062105 71 239 0.0 0.0 0.00 0.00 0.00 86 1029.3
20200705061604 71 236 0.0 0.0 0.00 0.00 0.00 86 1029.4
20200705061101 71 309 0.0 0.0 0.00 0.00 0.00 87 1029.3
20200705060558 71 310 0.0 0.0 0.00 0.00 0.00 87 1029.5
20200705060056 71 309 0.0 0.0 0.00 0.00 0.00 86 1029.2
20200705055555 72 294 0.0 0.0 0.00 0.00 0.00 86 1029.3
20200705055054 72 293 0.0 0.0 0.00 0.00 0.00 86 1029.2
20200705054548 72 296 0.0 0.0 0.00 0.00 0.00 85 1029.2
20200705054046 72 257 0.0 0.0 0.00 0.00 0.00 85 1029.4
20200705053542 72 256 0.0 0.0 0.00 0.00 0.00 84 1029.3
20200705053041 72 254 0.0 0.0 0.00 0.00 0.00 84 1029.2
20200705052541 72 255 0.0 0.0 0.00 0.00 0.00 84 1029.3
20200705052037 73 266 0.0 0.0 0.00 0.00 0.00 84 1029.4
20200705051534 73 260 0.0 0.0 0.00 0.00 0.00 84 1029.2
20200705051032 73 308 0.0 0.0 0.00 0.00 0.00 84 1029.3
20200705050531 73 229 0.0 0.0 0.00 0.00 0.00 83 1029.4
20200705050029 74 232 0.0 0.0 0.00 0.00 0.00 82 1029.7
20200705045528 75 233 0.0 0.0 0.00 0.00 0.00 81 1029.8
20200705045026 75 237 0.0 0.0 0.00 0.00 0.00 79 1029.7
20200705044521 75 252 0.0 0.0 0.00 0.00 0.00 79 1029.7
20200705044018 76 234 0.0 0.0 0.00 0.00 0.00 78 1029.9
20200705043514 76 277 0.0 0.0 0.00 0.00 0.00 74 1029.7
20200705043012 76 277 0.0 0.0 0.00 0.00 0.00 75 1029.8
20200705042508 76 313 0.0 0.0 0.00 0.00 0.00 76 1029.7
20200705042004 75 282 0.0 0.0 0.00 0.00 0.00 77 1029.7
20200705041502 75 285 0.0 0.0 0.00 0.00 0.00 79 1029.6
20200705041000 75 309 1.0 1.0 0.00 0.00 0.00 79 1029.5
20200705040458 75 277 0.0 0.0 0.00 0.00 0.00 79 1029.5
20200705035953 75 272 0.0 0.0 0.00 0.00 0.00 79 1029.4
20200705035452 75 273 0.0 0.0 0.00 0.00 0.00 79 1029.3
20200705034950 75 272 0.0 0.0 0.00 0.00 0.00 78 1029.3
20200705034447 75 300 0.0 1.0 0.00 0.00 0.00 78 1029.3
20200705033942 75 334 0.0 1.0 0.00 0.00 0.00 79 1029.2
20200705033439 76 268 0.0 0.0 0.00 0.00 0.00 77 1029.1
20200705032935 76 227 1.0 1.0 0.00 0.00 0.00 77 1029.0
20200705032435 76 270 0.0 0.0 0.00 0.00 0.00 76 1029.2
20200705031931 76 274 0.0 0.0 0.00 0.00 0.00 76 1029.0
20200705031429 76 283 0.0 0.0 0.00 0.00 0.00 75 1028.8
20200705030923 77 273 0.0 0.0 0.00 0.00 0.00 74 1028.9
20200705030420 77 257 0.0 0.0 0.00 0.00 0.00 72 1029.0
20200705025918 78 257 0.0 0.0 0.00 0.00 0.00 71 1029.1
20200705025417 78 256 0.0 0.0 0.00 0.00 0.00 70 1029.0
20200705024913 78 258 0.0 0.0 0.00 0.00 0.00 69 1029.0
20200705024411 78 259 0.0 0.0 0.00 0.00 0.00 68 1029.0
20200705023907 79 305 0.0 1.0 0.00 0.00 0.00 69 1029.0
20200705023406 78 283 0.0 1.0 0.00 0.00 0.00 69 1029.0
20200705022902 79 248 0.0 0.0 0.00 0.00 0.00 69 1029.1
20200705022357 79 304 1.0 2.0 0.00 0.00 0.00 69 1029.1
20200705021856 79 48 1.0 1.0 0.00 0.00 0.00 69 1029.1
20200705021352 79 44 4.0 5.0 0.00 0.00 0.00 69 1029.1
20200705020850 79 35 3.0 5.0 0.00 0.00 0.00 70 1029.1
20200705020350 79 58 1.0 2.0 0.00 0.00 0.00 69 1029.1
20200705015845 79 39 3.0 5.0 0.00 0.00 0.00 69 1029.0
20200705015344 80 48 4.0 5.0 0.00 0.00 0.00 68 1028.8
20200705014840 80 103 3.0 5.0 0.00 0.00 0.00 67 1028.9
20200705014339 80 39 6.0 8.0 0.00 0.00 0.00 67 1029.0
20200705013836 80 52 3.0 5.0 0.00 0.00 0.00 67 1028.8
20200705013332 80 32 1.0 2.0 0.00 0.00 0.00 67 1028.8
20200705012828 80 63 1.0 2.0 0.00 0.00 0.00 66 1028.9
20200705012327 80 53 7.0 7.0 0.00 0.00 0.00 65 1028.7
20200705011823 81 4 3.0 5.0 0.00 0.00 0.00 65 1028.9
20200705011319 81 15 2.0 2.0 0.00 0.00 0.00 65 1028.5
20200705010816 81 85 1.0 2.0 0.00 0.00 0.00 65 1028.7
20200705010313 81 53 1.0 1.0 0.00 0.00 0.00 64 1028.4
20200705005809 82 86 1.0 2.0 0.00 0.00 0.00 64 1028.6
20200705005309 82 54 3.0 5.0 0.00 0.00 0.00 63 1028.5
20200705004808 82 79 3.0 3.0 0.00 0.00 0.00 62 1028.4
20200705004305 83 62 1.0 2.0 0.00 0.00 0.00 62 1028.6
20200705003802 83 47 5.0 6.0 0.00 0.00 0.00 61 1028.7
20200705003259 83 25 4.0 6.0 0.00 0.00 0.00 60 1028.5
20200705002758 84 51 5.0 6.0 0.00 0.00 0.00 60 1028.4
20200705002254 84 35 5.0 6.0 0.00 0.00 0.00 59 1028.4
20200705001749 84 50 5.0 7.0 0.00 0.00 0.00 59 1028.4
20200705001249 84 72 3.0 5.0 0.00 0.00 0.00 58 1028.3
20200705000747 84 55 4.0 6.0 0.00 0.00 0.00 59 1028.1
20200705000243 82 19 3.0 3.0 0.00 0.00 0.00 60 1028.0
20200704235737 82 356 1.0 1.0 0.00 0.00 0.00 64 1028.0
20200704235235 84 291 0.0 0.0 0.00 0.00 0.00 61 1028.0
20200704234731 84 285 0.0 0.0 0.00 0.00 0.00 61 1027.8
20200704234229 84 280 0.0 0.0 0.00 0.00 0.00 63 1027.8
20200704233727 86 296 0.0 0.0 0.00 0.00 0.00 62 1027.8
20200704233223 86 272 0.0 0.0 0.00 0.00 0.00 62 1027.8
20200704232720 87 301 0.0 0.0 0.00 0.00 0.00 62 1027.8
20200704232217 89 293 0.0 0.0 0.00 0.00 0.00 57 1027.6
20200704231710 90 303 0.0 0.0 0.00 0.00 0.00 53 1027.7
20200704231209 90 273 0.0 0.0 0.00 0.00 0.00 51 1028.0
20200704230705 89 288 0.0 0.0 0.00 0.00 0.00 55 1027.9
20200704230200 89 282 0.0 0.0 0.00 0.00 0.00 55 1027.8
20200704225659 89 290 0.0 0.0 0.00 0.00 0.00 54 1027.9
20200704225157 90 296 0.0 0.0 0.00 0.00 0.00 53 1027.8
20200704224650 91 302 0.0 0.0 0.00 0.00 0.00 52 1028.0
20200704224146 91 313 1.0 1.0 0.00 0.00 0.00 42 1027.8
20200704223644 90 282 0.0 0.0 0.00 0.00 0.00 51 1027.8
20200704223141 90 299 1.0 1.0 0.00 0.00 0.00 51 1028.1
20200704222635 92 270 0.0 0.0 0.00 0.00 0.00 45 1027.9
20200704222135 92 269 0.0 0.0 0.00 0.00 0.00 43 1028.0
20200704221632 93 242 0.0 0.0 0.00 0.00 0.00 42 1028.1
20200704221127 93 262 0.0 0.0 0.00 0.00 0.00 39 1028.0
20200704220622 95 259 0.0 0.0 0.00 0.00 0.00 37 1028.2
20200704220121 95 327 0.0 0.0 0.00 0.00 0.00 34 1028.3
20200704215618 95 252 0.0 0.0 0.00 0.00 0.00 33 1028.2
20200704215114 94 262 1.0 1.0 0.00 0.00 0.00 33 1028.4
20200704214610 96 246 0.0 1.0 0.00 0.00 0.00 34 1028.2
20200704214105 95 281 0.0 0.0 0.00 0.00 0.00 34 1028.1
20200704213605 94 209 3.0 3.0 0.00 0.00 0.00 36 1028.5
20200704213102 93 235 1.0 1.0 0.00 0.00 0.00 37 1028.2
20200704212601 95 243 0.0 1.0 0.00 0.00 0.00 36 1028.3
20200704212058 95 266 0.0 0.0 0.00 0.00 0.00 33 1028.4
20200704211557 94 267 0.0 0.0 0.00 0.00 0.00 34 1028.4
20200704211056 95 229 0.0 0.0 0.00 0.00 0.00 34 1028.6
20200704210553 94 236 1.0 2.0 0.00 0.00 0.00 34 1028.5
20200704210052 95 249 1.0 1.0 0.00 0.00 0.00 33 1028.6
20200704205550 97 259 0.0 1.0 0.00 0.00 0.00 34 1028.5
20200704205046 96 280 0.0 0.0 0.00 0.00 0.00 33 1028.7
20200704204543 95 225 0.0 1.0 0.00 0.00 0.00 34 1028.6
20200704204037 95 275 0.0 0.0 0.00 0.00 0.00 33 1028.6
20200704203536 95 237 0.0 1.0 0.00 0.00 0.00 34 1028.5
20200704203032 95 230 1.0 1.0 0.00 0.00 0.00 34 1028.7
20200704202527 95 236 0.0 1.0 0.00 0.00 0.00 36 1028.7
20200704202020 96 45 3.0 3.0 0.00 0.00 0.00 34 1028.6
20200704201518 96 234 0.0 0.0 0.00 0.00 0.00 36 1028.8
20200704201013 95 246 0.0 1.0 0.00 0.00 0.00 34 1029.0
20200704200511 95 268 0.0 0.0 0.00 0.00 0.00 33 1029.0
20200704200010 94 305 0.0 0.0 0.00 0.00 0.00 35 1029.1
20200704195510 94 71 2.0 2.0 0.00 0.00 0.00 36 1029.1
20200704195006 93 316 1.0 1.0 0.00 0.00 0.00 37 1029.1
20200704194505 96 195 3.0 3.0 0.00 0.00 0.00 32 1028.9
20200704194001 95 278 0.0 0.0 0.00 0.00 0.00 33 1029.1
20200704193458 95 268 1.0 1.0 0.00 0.00 0.00 33 1029.2
20200704192954 93 60 1.0 2.0 0.00 0.00 0.00 37 1029.1
20200704192446 93 292 1.0 1.0 0.00 0.00 0.00 38 1029.2
20200704191945 94 90 1.0 1.0 0.00 0.00 0.00 37 1029.2
20200704191441 94 270 0.0 1.0 0.00 0.00 0.00 41 1029.4
20200704190934 94 103 2.0 2.0 0.00 0.00 0.00 38 1029.3
20200704190431 95 242 1.0 1.0 0.00 0.00 0.00 37 1029.3
20200704185925 95 331 1.0 2.0 0.00 0.00 0.00 37 1029.3
20200704185419 94 235 0.0 1.0 0.00 0.00 0.00 39 1029.5
20200704184918 94 163 2.0 2.0 0.00 0.00 0.00 39 1029.5
20200704184414 94 11 1.0 1.0 0.00 0.00 0.00 37 1029.5
20200704183913 94 356 3.0 3.0 0.00 0.00 0.00 38 1029.2
20200704183413 95 204 1.0 1.0 0.00 0.00 0.00 39 1029.3
20200704182909 94 285 0.0 0.0 0.00 0.00 0.00 39 1029.6
20200704182409 95 201 2.0 3.0 0.00 0.00 0.00 39 1029.5
20200704181903 96 290 0.0 0.0 0.00 0.00 0.00 37 1029.7
20200704181400 94 315 1.0 2.0 0.00 0.00 0.00 34 1029.8
20200704180856 93 80 3.0 3.0 0.00 0.00 0.00 38 1029.9
20200704180356 94 340 2.0 2.0 0.00 0.00 0.00 40 1029.9
20200704175854 95 279 0.0 0.0 0.00 0.00 0.00 40 1029.9
20200704175350 94 131 1.0 1.0 0.00 0.00 0.00 40 1029.9
20200704174840 93 246 0.0 1.0 0.00 0.00 0.00 40 1029.9
20200704174337 92 306 1.0 1.0 0.00 0.00 0.00 41 1030.2
20200704173836 92 40 1.0 2.0 0.00 0.00 0.00 40 1030.0
20200704173336 91 50 3.0 3.0 0.00 0.00 0.00 43 1030.3
20200704172833 92 64 3.0 3.0 0.00 0.00 0.00 40 1030.0
20200704172331 91 246 0.0 0.0 0.00 0.00 0.00 41 1030.0
20200704171825 90 54 6.0 7.0 0.00 0.00 0.00 42 1030.1
20200704171324 91 61 2.0 3.0 0.00 0.00 0.00 42 1030.1
20200704170823 93 136 0.0 1.0 0.00 0.00 0.00 41 1030.0
20200704170320 93 35 3.0 3.0 0.00 0.00 0.00 42 1030.0
20200704165816 91 283 0.0 0.0 0.00 0.00 0.00 42 1030.0
20200704165313 90 90 1.0 1.0 0.00 0.00 0.00 42 1030.4
20200704164810 90 38 2.0 2.0 0.00 0.00 0.00 45 1030.1
20200704164308 90 268 0.0 0.0 0.00 0.00 0.00 44 1030.2
20200704163806 89 4 0.0 1.0 0.00 0.00 0.00 45 1030.1
20200704163303 91 47 2.0 5.0 0.00 0.00 0.00 42 1030.2
20200704162800 91 206 2.0 3.0 0.00 0.00 0.00 44 1030.3
20200704162256 90 52 3.0 5.0 0.00 0.00 0.00 46 1030.3
20200704161755 90 346 1.0 1.0 0.00 0.00 0.00 46 1030.4
20200704161252 90 230 1.0 1.0 0.00 0.00 0.00 47 1030.2
20200704160752 89 237 0.0 0.0 0.00 0.00 0.00 46 1030.4
20200704160249 89 199 2.0 3.0 0.00 0.00 0.00 50 1030.4
20200704155747 89 164 1.0 1.0 0.00 0.00 0.00 49 1030.2
20200704155245 89 20 2.0 2.0 0.00 0.00 0.00 49 1030.3
20200704154743 89 308 1.0 1.0 0.00 0.00 0.00 52 1030.4
20200704154240 87 337 0.0 1.0 0.00 0.00 0.00 52 1030.3
20200704153738 87 3 1.0 2.0 0.00 0.00 0.00 53 1030.3
20200704153237 87 58 3.0 5.0 0.00 0.00 0.00 51 1030.1
20200704152737 86 28 3.0 6.0 0.00 0.00 0.00 51 1030.1
20200704152236 86 277 1.0 1.0 0.00 0.00 0.00 56 1030.2
20200704151731 86 54 3.0 3.0 0.00 0.00 0.00 55 1030.2
20200704151226 86 77 3.0 3.0 0.00 0.00 0.00 54 1030.3
20200704150725 86 75 5.0 7.0 0.00 0.00 0.00 54 1030.0
20200704150221 86 63 4.0 5.0 0.00 0.00 0.00 53 1030.1
20200704145716 86 151 1.0 2.0 0.00 0.00 0.00 54 1030.0
20200704145213 86 181 1.0 2.0 0.00 0.00 0.00 57 1030.0
20200704144710 86 198 0.0 1.0 0.00 0.00 0.00 55 1030.2
20200704144205 85 203 1.0 1.0 0.00 0.00 0.00 56 1030.3
20200704143702 84 205 1.0 1.0 0.00 0.00 0.00 60 1030.3
20200704143159 84 24 3.0 5.0 0.00 0.00 0.00 60 1030.2
20200704142654 84 236 0.0 1.0 0.00 0.00 0.00 64 1030.2
20200704142150 83 207 1.0 1.0 0.00 0.00 0.00 67 1030.1
20200704141649 83 248 0.0 0.0 0.00 0.00 0.00 68 1030.0
20200704141142 82 15 1.0 2.0 0.00 0.00 0.00 67 1030.1
20200704140640 82 207 0.0 1.0 0.00 0.00 0.00 69 1030.4
20200704140138 82 287 1.0 1.0 0.00 0.00 0.00 69 1030.1
20200704135632 81 272 1.0 1.0 0.00 0.00 0.00 67 1030.4
20200704135129 81 64 2.0 2.0 0.00 0.00 0.00 71 1030.6
20200704134627 80 64 0.0 0.0 0.00 0.00 0.00 72 1030.1
20200704134125 80 79 0.0 0.0 0.00 0.00 0.00 72 1030.1
20200704133621 80 286 0.0 0.0 0.00 0.00 0.00 74 1030.2
20200704133117 79 336 1.0 1.0 0.00 0.00 0.00 75 1030.3
20200704132614 78 329 1.0 1.0 0.00 0.00 0.00 75 1030.3
20200704132112 78 333 0.0 1.0 0.00 0.00 0.00 75 1030.3
20200704131609 78 336 1.0 2.0 0.00 0.00 0.00 77 1030.1
20200704131108 78 298 0.0 1.0 0.00 0.00 0.00 76 1030.1
20200704130603 77 238 0.0 0.0 0.00 0.00 0.00 78 1030.1
20200704130101 77 45 1.0 1.0 0.00 0.00 0.00 78 1030.1
20200704125600 76 239 0.0 0.0 0.00 0.00 0.00 79 1030.1
20200704125056 76 220 0.0 0.0 0.00 0.00 0.00 83 1030.0
20200704124556 75 221 0.0 0.0 0.00 0.00 0.00 82 1030.3
20200704124056 75 224 0.0 0.0 0.00 0.00 0.00 85 1030.3
20200704123555 74 224 0.0 0.0 0.00 0.00 0.00 86 1030.4
20200704123050 73 224 0.0 0.0 0.00 0.00 0.00 86 1030.2
20200704122545 73 224 0.0 0.0 0.00 0.00 0.00 87 1030.1
20200704122041 72 225 0.0 0.0 0.00 0.00 0.00 88 1030.2
20200704121539 72 228 0.0 0.0 0.00 0.00 0.00 89 1030.1
20200704121036 71 228 0.0 0.0 0.00 0.00 0.00 90 1030.2
20200704120535 71 228 0.0 0.0 0.00 0.00 0.00 90 1029.9
20200704120033 70 228 0.0 0.0 0.00 0.00 0.00 91 1029.7
20200704115532 69 228 0.0 0.0 0.00 0.00 0.00 92 1029.8
20200704115025 69 228 0.0 0.0 0.00 0.00 0.00 93 1030.0
20200704114521 68 228 0.0 0.0 0.00 0.00 0.00 94 1029.8
20200704114019 68 228 0.0 0.0 0.00 0.00 0.00 95 1029.9
20200704113514 67 228 0.0 0.0 0.00 0.00 0.00 95 1029.7
20200704113013 67 236 0.0 0.0 0.00 0.00 0.00 95 1029.8
20200704112508 66 240 0.0 0.0 0.00 0.00 0.00 95 1029.6
20200704112004 66 240 0.0 0.0 0.00 0.00 0.00 95 1029.8
20200704111500 66 240 0.0 0.0 0.00 0.00 0.00 95 1029.8
20200704110959 66 254 0.0 0.0 0.00 0.00 0.00 96 1029.8
20200704110458 66 301 0.0 0.0 0.00 0.00 0.00 96 1029.6
20200704105953 66 309 0.0 0.0 0.00 0.00 0.00 96 1029.9
20200704105449 66 303 0.0 0.0 0.00 0.00 0.00 96 1029.6
20200704104949 66 303 0.0 0.0 0.00 0.00 0.00 96 1029.7
20200704104445 65 303 0.0 0.0 0.00 0.00 0.00 96 1029.8